This is the latest recevied weather packets stored in our database for station/object WE1C. If no packets are shown the sender has not sent any weather packets the latest 10 day(s).
| Time | Temp. | Humidity | Pressure | Rain* | Wind** | Luminosity | Snow |
|---|---|---|---|---|---|---|---|
| 1777423297 | 8.89° C | 43% | 1048.8 hPa | 0 mm | - | 0 W/m² | - |
| 1777422992 | 8.89° C | 41% | 1048.8 hPa | 0 mm | - | 0 W/m² | - |
| 1777422688 | 8.89° C | 37% | 1048.6 hPa | 0 mm | - | 0 W/m² | - |
| 1777422383 | 8.89° C | 36% | 1048.5 hPa | 0 mm | - | 0 W/m² | - |
| 1777422078 | 9.44° C | 35% | 1048.5 hPa | 0 mm | - | 0 W/m² | - |
| 1777421772 | 9.44° C | 37% | 1048.4 hPa | 0 mm | - | 0 W/m² | - |
| 1777421469 | 9.44° C | 37% | 1048.3 hPa | 0 mm | - | 0 W/m² | - |
| 1777421165 | 10° C | 36% | 1048.4 hPa | 0 mm | - | 0 W/m² | - |
| 1777420861 | 10° C | 36% | 1048.1 hPa | 0 mm | - | 0 W/m² | - |
| 1777420557 | 10° C | 36% | 1048.2 hPa | 0 mm | - | 0 W/m² | - |
| 1777420253 | 10.56° C | 35% | 1048.3 hPa | 0 mm | - | 0 W/m² | - |
| 1777419949 | 10.56° C | 34% | 1048.4 hPa | 0 mm | - | 0 W/m² | - |
| 1777419646 | 10.56° C | 34% | 1048.4 hPa | 0 mm | - | 2 W/m² | - |
| 1777419345 | 10.56° C | 35% | 1048.3 hPa | 0 mm | - | 4 W/m² | - |
| 1777419044 | 11.11° C | 34% | 1048.4 hPa | 0 mm | - | 6 W/m² | - |
| 1777418743 | 11.11° C | 35% | 1048.5 hPa | 0 mm | - | 12 W/m² | - |
| 1777418440 | 11.67° C | 34% | 1048.3 hPa | 0 mm | - | 17 W/m² | - |
| 1777418136 | 11.67° C | 35% | 1048.3 hPa | 0 mm | - | 23 W/m² | - |
| 1777417833 | 11.67° C | 35% | 1048.3 hPa | 0 mm | - | 29 W/m² | - |
| 1777417533 | 11.67° C | 34% | 1048.3 hPa | 0 mm | - | 32 W/m² | - |
| 1777417230 | 11.67° C | 35% | 1048.4 hPa | 0 mm | - | 37 W/m² | - |
| 1777416926 | 12.22° C | 35% | 1048.4 hPa | 0 mm | - | 39 W/m² | - |
| 1777416621 | 12.22° C | 35% | 1048.4 hPa | 0 mm | - | 42 W/m² | - |
| 1777416317 | 12.22° C | 36% | 1048.5 hPa | 0 mm | - | 49 W/m² | - |
| 1777416016 | 12.78° C | 35% | 1048.1 hPa | 0 mm | - | 56 W/m² | - |
* Rain latest hour (hover to see other rain measurements)
** Current wind speed in m/s (hover to see current wind gust speed)